EJA200 KMIA-KX58

Flight info

Callsign EJA200
Flight time 0h 20m
Altitude 16000
Route HEDLY
Aircraft CL60/M-SBDE1E2E3FGHIJ1J4J5J7M3RWXYZ/LB1V1D1

Departure

Time 2026-01-25 15:41
Airport Miami International Airport (KMIA)

Arrival

Time 2026-01-25 16:01
Airport Indiantown Airport (KX58)
Time Latitude Longitude Altitude Speed Heading
2026-01-25 15:22 25.80629 -80.29237 11 ft 0 kts 359°
2026-01-25 15:35 25.80665 -80.29211 11 ft 8 kts 91°
2026-01-25 15:36 25.80461 -80.29140 11 ft 13 kts 208°
2026-01-25 15:37 25.80430 -80.29417 10 ft 24 kts 266°
2026-01-25 15:37 25.80417 -80.29816 11 ft 23 kts 269°
2026-01-25 15:38 25.80399 -80.30114 11 ft 13 kts 258°
2026-01-25 15:38 25.80379 -80.30145 11 ft 1 kts 196°
2026-01-25 15:39 25.80293 -80.30068 11 ft 22 kts 88°
2026-01-25 15:39 25.80315 -80.29571 11 ft 106 kts 88°
2026-01-25 15:39 25.80433 -80.27147 679 ft 183 kts 91°
2026-01-25 15:40 25.81329 -80.22345 3093 ft 245 kts 58°
2026-01-25 15:41 25.84427 -80.20499 4754 ft 279 kts 358°
2026-01-25 15:41 25.88036 -80.22063 6727 ft 288 kts 333°
2026-01-25 15:42 25.91654 -80.24018 8765 ft 293 kts 332°
2026-01-25 15:42 25.95337 -80.26000 10650 ft 300 kts 332°
2026-01-25 15:42 25.97259 -80.27032 11237 ft 317 kts 332°
2026-01-25 15:43 26.01506 -80.29311 11997 ft 358 kts 333°
2026-01-25 15:43 26.06095 -80.31763 13436 ft 369 kts 332°
2026-01-25 15:44 26.13073 -80.35490 15654 ft 377 kts 332°
2026-01-25 15:45 26.17868 -80.38052 16031 ft 382 kts 332°
2026-01-25 15:45 26.22632 -80.40596 16033 ft 379 kts 332°
2026-01-25 15:45 26.25002 -80.41862 16022 ft 378 kts 332°
2026-01-25 15:46 26.32086 -80.45651 15993 ft 378 kts 332°
2026-01-25 15:47 26.39117 -80.49415 16003 ft 378 kts 332°
2026-01-25 15:47 26.43862 -80.51956 16015 ft 376 kts 332°
2026-01-25 15:48 26.50949 -80.55759 15789 ft 373 kts 332°
2026-01-25 15:49 26.55604 -80.58218 14761 ft 366 kts 336°
2026-01-25 15:49 26.58042 -80.58801 14296 ft 365 kts 358°
2026-01-25 15:49 26.62999 -80.58129 13439 ft 351 kts
2026-01-25 15:50 26.69921 -80.57162 12276 ft 318 kts
2026-01-25 15:51 26.74257 -80.56540 11305 ft 309 kts
2026-01-25 15:51 26.76356 -80.56246 10826 ft 305 kts
2026-01-25 15:51 26.80541 -80.55653 9762 ft 301 kts
2026-01-25 15:52 26.86738 -80.54765 8134 ft 297 kts
2026-01-25 15:53 26.90813 -80.54187 7050 ft 294 kts
2026-01-25 15:53 26.94840 -80.54207 5909 ft 291 kts 345°
2026-01-25 15:54 26.98690 -80.55424 4864 ft 287 kts 343°
2026-01-25 15:54 27.02504 -80.56684 3839 ft 282 kts 343°
2026-01-25 15:54 27.04354 -80.57303 3578 ft 269 kts 343°
2026-01-25 15:55 27.07787 -80.58454 3090 ft 245 kts 343°
2026-01-25 15:55 27.10741 -80.57777 2577 ft 208 kts 49°
2026-01-25 15:56 27.11650 -80.56612 2272 ft 190 kts 64°
2026-01-25 15:57 27.10722 -80.52331 1480 ft 133 kts 136°
2026-01-25 15:57 27.10089 -80.51578 1502 ft 133 kts 136°
2026-01-25 15:58 27.08123 -80.49290 1051 ft 138 kts 134°
2026-01-25 15:58 27.07480 -80.48520 901 ft 131 kts 135°
2026-01-25 15:59 27.05562 -80.46207 366 ft 132 kts 134°
2026-01-25 15:59 27.04924 -80.45467 182 ft 130 kts 136°
2026-01-25 15:59 27.03803 -80.44154 31 ft 79 kts 135°
2026-01-25 16:00 27.03217 -80.43514 30 ft 13 kts 183°
2026-01-25 16:01 27.03183 -80.43559 30 ft 0 kts 352°